Regional Weather Roundup
Issued by NWS

Home | Current Version | Previous Version | Graphics & Text | Print | Product List | Glossary On
Versions: 1 2 3 4 5 6 7 8 9 10 11 12 13 14 15 16 17 18 19 20 21 22 23 24 25 26 27 28 29 30 31 32 33 34 35 36 37 38 39 40 41 42 43 44 45 46 47 48 49 50
000
ASUS43 KMKX 040621
RWRWI

WISCONSIN REGIONAL WEATHER ROUNDUP
NATIONAL WEATHER SERVICE MILWAUKEE/SULLIVAN WI
1200 AM CST SUN DEC 04 2016

NOTE: "FAIR" INDICATES FEW OR NO CLOUDS BELOW 12,000 FEET WITH NO
SIGNIFICANT WEATHER AND/OR OBSTRUCTIONS TO VISIBILITY.

WIZ001-002-006>008-014>016-023>028-040700-
NORTHWEST WISCONSIN

CITY           SKY/WX    TMP DP  RH WIND       PRES   REMARKS
SUPERIOR ARPT  CLOUDY    30  22  72 SE3       30.14F
6HR MIN TEMP:  29; 6HR MAX TEMP:  31;

ASHLAND        CLOUDY    30  21  69 VRB7      30.17F WCI  23
6HR MIN TEMP:  30; 6HR MAX TEMP:  31;

HAYWARD        CLOUDY    29  20  69 SE6       30.14F WCI  23
6HR MIN TEMP:  26; 6HR MAX TEMP:  29;

SIREN          CLOUDY    30  22  73 SE9       30.12F WCI  21
6HR MIN TEMP:  28; 6HR MAX TEMP:  30;

CUMBERLAND     CLOUDY    28  21  74 SE9       30.13S WCI  20
RICE LAKE      CLOUDY    29  23  77 SE8       30.16F WCI  21
6HR MIN TEMP:  27; 6HR MAX TEMP:  30;

CHETEK         CLOUDY    29  23  78 SE7       30.16F WCI  22
6HR MIN TEMP:  27; 6HR MAX TEMP:  29;

LADYSMITH      CLOUDY    28  24  82 SE5       30.17F WCI  23
6HR MIN TEMP:  27; 6HR MAX TEMP:  30;

EAU CLAIRE     CLOUDY    30  23  75 SE5       30.16F WCI  25
6HR MIN TEMP:  28; 6HR MAX TEMP:  30;

MENOMONIE      CLOUDY    31  25  78 E6        30.17S WCI  25
6HR MIN TEMP:  29; 6HR MAX TEMP:  31;

NEW RICHMOND   LGT SNOW  30  24  79 SE5       30.14S WCI  25
6HR MIN TEMP:  28; 6HR MAX TEMP:  30;

OSCEOLA        FLURRIES  31  26  81 SE7       30.16F WCI  24
6HR MIN TEMP:  29; 6HR MAX TEMP:  31;

$$

WIZ003>005-009-010-017-018-040700-
NORTH CENTRAL WISCONSIN

CITY           SKY/WX    TMP DP  RH WIND       PRES   REMARKS
MANITOWISH WTR CLOUDY    26  21  79 S3        30.14F
6HR MIN TEMP:  26; 6HR MAX TEMP:  28;

ARBOR VITAE    CLOUDY    29  22  75 S5        30.15S WCI  24
6HR MIN TEMP:  29; 6HR MAX TEMP:  29;

WOODRUFF       CLOUDY    29  22  75 S5        30.15S WCI  24
6HR MIN TEMP:  29; 6HR MAX TEMP:  29;

RHINELANDER    CLOUDY    28  21  75 S3        30.17S
6HR MIN TEMP:  28; 6HR MAX TEMP:  28;

EAGLE RIVER    CLOUDY    26  18  72 CALM      30.15F
6HR MIN TEMP:  26; 6HR MAX TEMP:  28;

LAND O LAKES   CLOUDY    27  20  75 S3        30.17S
6HR MIN TEMP:  27; 6HR MAX TEMP:  29;

PHILLIPS       CLOUDY    26  21  82 S3        30.15S
6HR MIN TEMP:  26; 6HR MAX TEMP:  28;

TOMAHAWK       CLOUDY    27  21  78 CALM      30.17S
6HR MIN TEMP:  27; 6HR MAX TEMP:  28;

MEDFORD        CLOUDY    25  21  87 SE3       30.15F
6HR MIN TEMP:  24; 6HR MAX TEMP:  28;

MERRILL        CLOUDY    28  22  79 CALM      30.19F
6HR MIN TEMP:  28; 6HR MAX TEMP:  29;

$$

WIZ029-030-035-036-043>047-040700-
CENTRAL WISCONSIN

CITY           SKY/WX    TMP DP  RH WIND       PRES   REMARKS
WAUSAU         CLOUDY    27  21  78 SE3       30.18F
6HR MIN TEMP:  27; 6HR MAX TEMP:  29;

MOSINEE        CLOUDY    28  25  86 SE5       30.20S WCI  23
MARSHFIELD     CLOUDY    28  21  75 SE6       30.17F WCI  22
6HR MIN TEMP:  26; 6HR MAX TEMP:  29;

STEVENS POINT  CLOUDY    27  20  77 SE5       30.21F WCI  21
6HR MIN TEMP:  26; 6HR MAX TEMP:  28;

WAUPACA        CLOUDY    31  24  76 CALM      30.24R
6HR MIN TEMP:  31; 6HR MAX TEMP:  32;

WAUTOMA        CLOUDY    28  23  81 CALM      30.23F
6HR MIN TEMP:  27; 6HR MAX TEMP:  30;

WISC RAPIDS    CLOUDY    28  22  78 SE5       30.21F WCI  23
6HR MIN TEMP:  28; 6HR MAX TEMP:  30;

CAMP DOUGLAS   CLOUDY    31  25  78 SE5       30.19F WCI  26
6HR MIN TEMP:  30; 6HR MAX TEMP:  31;

$$

WIZ011>013-019>022-031-037>040-048>050-040700-
NORTHEAST WISCONSIN

CITY           SKY/WX    TMP DP  RH WIND       PRES   REMARKS
ANTIGO         CLOUDY    27  21  80 SW5       30.18S WCI  21
6HR MIN TEMP:  26; 6HR MAX TEMP:  27;

SHAWANO        CLOUDY    32  24  73 CALM      30.24R
6HR MIN TEMP:  32; 6HR MAX TEMP:  32;

OCONTO         CLOUDY    30  24  77 CALM      30.23S
6HR MIN TEMP:  30; 6HR MAX TEMP:  31;

STURGEON BAY   CLOUDY    31  24  75 S6        30.24F WCI  25
6HR MIN TEMP:  31; 6HR MAX TEMP:  31;

GREEN BAY      CLOUDY    33  25  72 S3        30.24S
6HR MIN TEMP:  32; 6HR MAX TEMP:  33;

MANITOWOC      CLOUDY    31  24  75 SW3       30.25S
6HR MIN TEMP:  31; 6HR MAX TEMP:  33;

APPLETON       CLOUDY    30  23  74 S3        30.22R
CLINTONVILLE   CLOUDY    30  23  74 CALM      30.23S
OSHKOSH        MOCLDY    29  23  78 S5        30.24R WCI  24
6HR MIN TEMP:  28; 6HR MAX TEMP:  31;

$$

WIZ032>034-041-042-053>061-040700-
SOUTHWEST WISCONSIN

CITY           SKY/WX    TMP DP  RH WIND       PRES   REMARKS
LA CROSSE      CLOUDY    34  27  75 SE6       30.19F WCI  29
6HR MIN TEMP:  32; 6HR MAX TEMP:  34;

SPARTA         CLOUDY    31  27  84 CALM      30.20F
6HR MIN TEMP:  30; 6HR MAX TEMP:  32;

VIROQUA        CLOUDY    30  28  90 SE8       30.17F WCI  23
6HR MIN TEMP:  29; 6HR MAX TEMP:  31;

BOSCOBEL       CLOUDY    35  28  75 CALM      30.22F
6HR MIN TEMP:  32; 6HR MAX TEMP:  35;

PRAIRIE DU CHI LGT SNOW  33  29  86 E3        30.20F
6HR MIN TEMP:  33; 6HR MAX TEMP:  34;

PLATTEVILLE    PTCLDY    33  31  94 SE8       30.20F WCI  25
6HR MIN TEMP:  32; 6HR MAX TEMP:  33;

$$

WIZ056-057-062-063-064-067-068-040700-
SOUTH CENTRAL WISCONSIN

CITY           SKY/WX    TMP DP  RH WIND       PRES   REMARKS
REEDSBURG      CLOUDY    30  26  83 CALM      30.20F
6HR MIN TEMP:  30; 6HR MAX TEMP:  31;

BARABOO/DELLS  CLOUDY    31  25  81 S5        30.21F WCI  26
6HR MIN TEMP:  30; 6HR MAX TEMP:  32;

LONE ROCK      CLOUDY    32  27  81 E5        30.22F WCI  27
6HR MIN TEMP:  30; 6HR MAX TEMP:  33;

MINERAL POINT  CLOUDY    32  30  93 SE6       30.20F WCI  26
MADISON        CLOUDY    31  25  78 S7        30.23S WCI  24
6HR MIN TEMP:  29; 6HR MAX TEMP:  32;

MIDDLETON      CLOUDY    32  27  81 S3        30.23S
6HR MIN TEMP:  32; 6HR MAX TEMP:  33;

WATERTOWN      MOCLDY    29  27  92 S5        30.24S WCI  24
6HR MIN TEMP:  28; 6HR MAX TEMP:  31;

MONROE         CLOUDY    32  28  86 S8        30.21F WCI  25
JANESVILLE     CLOUDY    32  28  86 S5        30.23F WCI  27
$$

WIZ051-052-058>065-066-070>072-040700-
SOUTHEAST WISCONSIN

CITY           SKY/WX    TMP DP  RH WIND       PRES   REMARKS
MILWAUKEE      MOCLDY    31  22  69 S3        30.25F
6HR MIN TEMP:  30; 6HR MAX TEMP:  33;

WAUKESHA       PTCLDY    28  23  80 S5        30.26R WCI  23
MILWAUKEE/TIMM PTCLDY    30  21  69 CALM      30.26S
RACINE         PTCLDY    29  23  78 CALM      30.28S
6HR MIN TEMP:  28; 6HR MAX TEMP:  32;

BURLINGTON     CLOUDY    28  25  87 CALM      30.26S
6HR MIN TEMP:  28; 6HR MAX TEMP:  31;

KENOSHA        CLOUDY    29  23  78 CALM      30.26S
6HR MIN TEMP:  29; 6HR MAX TEMP:  32;

FOND DU LAC    CLOUDY    30  23  75 SE5       30.24S WCI  25
6HR MIN TEMP:  30; 6HR MAX TEMP:  31;

SHEBOYGAN      MOCLDY    30  24  78 CALM      30.25S
6HR MIN TEMP:  29; 6HR MAX TEMP:  31;

WEST BEND      CLOUDY    30  25  80 CALM      30.24F
JUNEAU         MOCLDY    28  25  87 SE6       30.24F WCI  22
6HR MIN TEMP:  28; 6HR MAX TEMP:  30;

$$

LSZ147-162-040700-
LAKE SUPERIOR

STATION/POSITION TIME  TEMP    WIND        PRES    WAVE
                       AIR SEA DIR/SP/G            HT/PER
                 (UTC) (F)     (DEG/KT/KT) (MB)    (FT/S)
DEVILS ISLAND    0600   32     190/  7/ 11 1022.3F
PORT WING        0540   30     160/  3/  4 1021.3F
SAXON HARBOR     0530   31     180/  3/  5 1021.7F
$$

LMZ867-665-643>646-040700-
LAKE MICHIGAN

STATION/POSITION TIME  TEMP    WIND        PRES    WAVE
               C1F1C2F2C3F3C4F4C5F5C6F6C7F7C8M1C9M2Ca!


USA.gov is the U.S. government's official web portal to all federal, state and local government web resources and services.